Location: Unspecified
(0.0000°N, 0.0000°E)
Time: 00:54:26
(UTC+00:00)

DMSP B5D2-6 - Visible Passes

Search period start: 11 October 2024 00:00
Search period end: 21 October 2024 00:00
Orbit: 826 x 844 km, 98.8° (Epoch: 10 October)

Date Brightness Start Highest point End Pass type
(mag) Time Alt. Az. Time Alt. Az. Time Alt. Az.
11 Oct 5.1 19:13:28 10° SSE 19:18:50 60° ENE 19:24:11 10° N visible
12 Oct 5.6 18:57:26 10° SE 19:02:28 38° ENE 19:07:30 10° N visible
12 Oct 7.9 20:39:48 10° SW 20:42:33 14° WSW 20:45:18 10° WNW visible
13 Oct 6.1 18:41:45 10° SE 18:46:08 25° ENE 18:50:29 10° NNE visible
13 Oct 7.3 20:22:05 10° SSW 20:26:13 22° WSW 20:30:21 10° NW visible
14 Oct 6.6 18:26:33 10° ESE 18:29:47 16° ENE 18:33:00 10° NE visible
14 Oct 6.6 20:04:58 10° SSW 20:09:52 34° WSW 20:14:45 10° NW visible
15 Oct 5.8 19:48:13 10° S 19:53:30 53° WSW 19:58:48 10° NNW visible
16 Oct 5.1 19:31:41 10° S 19:37:09 83° WSW 19:42:36 10° NNW visible
17 Oct 5.1 19:15:23 10° SSE 19:20:47 64° ENE 19:26:10 10° N visible
18 Oct 5.5 18:59:19 10° SE 19:04:25 41° ENE 19:09:30 10° N visible
18 Oct 7.9 20:41:58 10° SW 20:44:29 13° WSW 20:47:01 10° WNW visible
19 Oct 6.0 18:43:34 10° SE 18:48:03 26° ENE 18:52:32 10° NNE visible
19 Oct 7.4 20:24:07 10° SSW 20:28:08 21° WSW 20:32:10 10° NW visible
20 Oct 6.5 18:28:17 10° ESE 18:31:42 17° ENE 18:35:06 10° NE visible
20 Oct 6.7 20:06:57 10° SSW 20:11:47 33° WSW 20:16:37 10° NW visible
